ボアッティーニ彗星

C/2010 G1 ( Boattini )

English version
Home page
Updated on October 11, 2010

---------------------------------------------------------------------

・ プロフィール

発見日 2010年4月5日
発見光度 13.9等
発見者 A. Boattini (Catalina Sky Survey)

・ 写真集

・ 軌道要素

Epoch 2010 Mar. 25.0 TT = JDT 2455280.5
T 2010 Apr. 2.54029 TT                                  MPC
q   1.2045380            (2000.0)            P               Q
z  +0.0021371      Peri.  168.63168     -0.25611585     -0.24737105
 +/-0.0001375      Node   287.44869     +0.79220541     +0.50022675
e   0.9974258      Incl.   78.38725     +0.55390907     -0.82980766

・ 星図

・ 光度変化

        m1 = 11.5 + 5 logΔ + 15.0 log r

---------------------------------------------------------------------

軌道要素はM.P.E.C. 2010-L68に掲載されたものです。
星図はステラナビゲータ Ver.8 (アストロアーツ) で作成したものです。
光度グラフはComet for Windowsで作成したものです。

---------------------------------------------------------------------

Copyright(C) Seiichi Yoshida (comet@aerith.net). All rights reserved.